TOLEDO1 KTOL-KCVG

Flight info

Callsign TOLEDO1
Flight time 0h 20m
Altitude 6000
Route KCVG, TOLEDO VIPER
Aircraft F16/L-SDE2E3FGHIRWXY/L

Departure

Time 2026-05-04 19:38
Airport Eugene F. Kranz Toledo Express Airport (KTOL)

Arrival

Time 2026-05-04 19:58
Airport Cincinnati Northern Kentucky International Airport (KCVG)
Time Latitude Longitude Altitude Speed Heading
2026-05-04 19:33 41.59074 -83.80913 677 ft 0 kts 65°
2026-05-04 19:34 41.59073 -83.80899 677 ft 2 kts 109°
2026-05-04 19:34 41.59035 -83.80911 678 ft 15 kts 232°
2026-05-04 19:34 41.59024 -83.80930 678 ft 0 kts 232°
2026-05-04 19:36 41.58980 -83.80989 678 ft 13 kts 224°
2026-05-04 19:37 41.58931 -83.81129 679 ft 22 kts 245°
2026-05-04 19:37 41.58863 -83.81321 680 ft 19 kts 217°
2026-05-04 19:37 41.58758 -83.81280 679 ft 18 kts 158°
2026-05-04 19:37 41.58789 -83.80993 677 ft 105 kts 67°
2026-05-04 19:38 41.59362 -83.79205 783 ft 313 kts 69°
2026-05-04 19:38 41.60344 -83.76232 1381 ft 327 kts 66°
2026-05-04 19:38 41.59816 -83.74372 2692 ft 270 kts 171°
2026-05-04 19:38 41.58163 -83.73816 3961 ft 206 kts 172°
2026-05-04 19:39 41.56675 -83.73473 3681 ft 247 kts 181°
2026-05-04 19:39 41.54560 -83.73298 3628 ft 361 kts 181°
2026-05-04 19:39 41.51817 -83.73134 3635 ft 426 kts 181°
2026-05-04 19:39 41.48669 -83.72940 3629 ft 477 kts 180°
2026-05-04 19:40 41.45197 -83.72777 3617 ft 522 kts 181°
2026-05-04 19:40 41.41434 -83.72774 3618 ft 549 kts 183°
2026-05-04 19:40 41.37395 -83.72919 3697 ft 633 kts 184°
2026-05-04 19:40 41.32963 -83.73127 3735 ft 641 kts 184°
2026-05-04 19:41 41.28533 -83.73332 3849 ft 633 kts 184°
2026-05-04 19:41 41.24134 -83.73543 3980 ft 653 kts 185°
2026-05-04 19:41 41.19378 -83.73824 7066 ft 758 kts 185°
2026-05-04 19:41 41.13975 -83.74180 7380 ft 765 kts 185°
2026-05-04 19:42 41.08626 -83.74539 7651 ft 814 kts 185°
2026-05-04 19:42 41.02727 -83.75146 8100 ft 859 kts 187°
2026-05-04 19:42 40.97212 -83.75779 8536 ft 738 kts 188°
2026-05-04 19:42 40.92106 -83.76530 9202 ft 784 kts 190°
2026-05-04 19:43 40.86398 -83.77754 9815 ft 875 kts 193°
2026-05-04 19:43 40.80214 -83.79499 10436 ft 939 kts 195°
2026-05-04 19:43 40.73752 -83.81631 11224 ft 939 kts 199°
2026-05-04 19:43 40.68222 -83.84043 12410 ft 776 kts 201°
2026-05-04 19:44 40.63235 -83.86555 15967 ft 811 kts 206°
2026-05-04 19:44 40.58312 -83.89294 16049 ft 738 kts 205°
2026-05-04 19:44 40.53782 -83.91778 16134 ft 656 kts 205°
2026-05-04 19:44 40.49846 -83.93889 16165 ft 579 kts 205°
2026-05-04 19:45 40.46190 -83.95825 16172 ft 558 kts 205°
2026-05-04 19:45 40.42773 -83.97619 13855 ft 480 kts 208°
2026-05-04 19:45 40.38659 -83.99978 8421 ft 787 kts 206°
2026-05-04 19:45 40.33290 -84.03092 7851 ft 882 kts 206°
2026-05-04 19:46 40.27939 -84.06178 7880 ft 780 kts 206°
2026-05-04 19:46 40.23243 -84.08816 7906 ft 700 kts 206°
2026-05-04 19:46 40.18535 -84.11456 7887 ft 748 kts 206°
2026-05-04 19:46 40.14226 -84.13839 7817 ft 613 kts 206°
2026-05-04 19:47 40.10522 -84.15831 7695 ft 547 kts 206°
2026-05-04 19:47 40.07112 -84.17629 7642 ft 514 kts 206°
2026-05-04 19:47 40.03874 -84.19317 7555 ft 488 kts 206°
2026-05-04 19:47 40.00794 -84.20907 7462 ft 465 kts 206°
2026-05-04 19:48 39.97887 -84.22484 7416 ft 441 kts 208°
2026-05-04 19:48 39.94539 -84.24488 7370 ft 644 kts 208°
2026-05-04 19:48 39.90328 -84.27170 7535 ft 632 kts 210°
2026-05-04 19:48 39.86295 -84.29200 7577 ft 674 kts 214°
2026-05-04 19:49 39.82665 -84.32200 7756 ft 558 kts 214°
2026-05-04 19:49 39.79507 -84.34723 7783 ft 513 kts 214°
2026-05-04 19:49 39.76560 -84.37069 7816 ft 481 kts 215°
2026-05-04 19:49 39.73779 -84.39265 7820 ft 455 kts 215°
2026-05-04 19:50 39.71139 -84.41332 7772 ft 432 kts 215°
2026-05-04 19:50 39.68607 -84.43301 7658 ft 421 kts 214°
2026-05-04 19:50 39.66089 -84.45258 7494 ft 424 kts 214°
2026-05-04 19:50 39.63551 -84.47235 7330 ft 427 kts 214°
2026-05-04 19:51 39.60998 -84.49226 7156 ft 430 kts 214°
2026-05-04 19:51 39.58446 -84.51163 6860 ft 428 kts 207°
2026-05-04 19:51 39.55640 -84.51944 3625 ft 453 kts 180°
2026-05-04 19:51 39.52554 -84.51809 3930 ft 447 kts 181°
2026-05-04 19:52 39.49510 -84.51675 3490 ft 375 kts 191°
2026-05-04 19:52 39.46635 -84.52407 2181 ft 428 kts 193°
2026-05-04 19:52 39.43767 -84.53090 2076 ft 420 kts 192°
2026-05-04 19:52 39.40911 -84.53809 2483 ft 417 kts 191°
2026-05-04 19:53 39.38022 -84.54401 2318 ft 426 kts 190°
2026-05-04 19:53 39.35090 -84.54956 2663 ft 425 kts 190°
2026-05-04 19:53 39.32175 -84.55451 3051 ft 422 kts 191°
2026-05-04 19:53 39.29237 -84.55954 3035 ft 429 kts 189°
2026-05-04 19:54 39.26252 -84.56375 3006 ft 433 kts 189°
2026-05-04 19:54 39.23243 -84.56697 3135 ft 434 kts 186°
2026-05-04 19:54 39.20251 -84.56956 3562 ft 426 kts 188°
2026-05-04 19:54 39.17432 -84.57948 3789 ft 423 kts 200°
2026-05-04 19:55 39.14588 -84.59099 3946 ft 432 kts 200°
2026-05-04 19:55 39.11992 -84.60822 3807 ft 425 kts 231°
2026-05-04 19:55 39.09744 -84.63320 3088 ft 440 kts 201°
2026-05-04 19:55 39.06788 -84.64637 1861 ft 498 kts 187°
2026-05-04 19:56 39.02985 -84.62976 1896 ft 670 kts 122°
2026-05-04 19:56 39.02777 -84.58087 2213 ft 486 kts 56°
2026-05-04 19:56 39.05119 -84.55903 2294 ft 364 kts 13°
2026-05-04 19:56 39.07327 -84.55837 2512 ft 310 kts 321°
2026-05-04 19:57 39.08405 -84.58215 2640 ft 324 kts 283°
2026-05-04 19:57 39.08741 -84.61002 2615 ft 298 kts 270°
2026-05-04 19:57 39.08771 -84.63461 2334 ft 254 kts 249°
2026-05-04 19:57 39.07510 -84.64555 1529 ft 219 kts 181°
2026-05-04 19:58 39.06207 -84.64646 1020 ft 168 kts 183°
2026-05-04 19:58 39.05092 -84.64666 871 ft 144 kts 183°
2026-05-04 19:58 39.04423 -84.64674 873 ft 59 kts 179°
2026-05-04 19:58 39.04124 -84.64682 869 ft 33 kts 184°
2026-05-04 19:59 39.03978 -84.64763 870 ft 2 kts 238°
2026-05-04 19:59 39.03963 -84.64794 870 ft 15 kts 244°
2026-05-04 20:00 39.03964 -84.64969 872 ft 19 kts 301°
2026-05-04 20:00 39.04098 -84.64993 873 ft 24 kts
2026-05-04 20:00 39.04270 -84.64991 874 ft 25 kts
2026-05-04 20:00 39.04447 -84.64994 861 ft 15 kts 342°
2026-05-04 20:01 39.04461 -84.65077 872 ft 13 kts 270°
2026-05-04 20:01 39.04462 -84.65244 871 ft 23 kts 270°
2026-05-04 20:01 39.04462 -84.65450 868 ft 23 kts 269°
2026-05-04 20:01 39.04444 -84.65586 869 ft 10 kts 189°
2026-05-04 20:02 39.04364 -84.65639 872 ft 7 kts 277°
2026-05-04 20:02 39.04364 -84.65641 872 ft 0 kts 270°